Wind_Speed
59 59 58 56 58 55 54 53 54 54 52 55 59 60 60 59 59 59 60 59 59 61 62 64 65 67 68 70 72 73 76 79
59 58 56 55 55 54 51 49 50 51 50 48 44 43 45 46 47 50 51 53 53 54 56 59 60 61 60 61 59 58 62 66
43 41 41 41 40 40 38 36 35 37 40 42 42 42 42 41 39 38 38 39 39 40 42 44 47 51 54 55 55 55 56 60
22 25 26 23 22 23 26 29 30 29 27 26 25 24 26 29 31 33 35 36 37 39 40 40 40 40 41 45 46 45 46 48
24 23 24 24 25 25 21 18 16 17 18 20 23 26 29 33 36 39 41 41 41 40 42 42 43 43 44 44 42 39 38 40
35 32 27 26 19 14 13 12 14 18 23 27 31 35 39 42 45 48 51 53 53 52 51 50 50 49 48 47 47 44 41 39
27 24 18 13 13 13 16 21 25 29 34 37 40 43 46 49 51 54 57 58 59 60 59 58 56 55 55 55 52 50 46 42
19 15 14 15 15 19 24 29 34 37 40 45 48 50 51 50 52 56 60 61 62 63 62 61 61 59 58 59 58 56 55 51
12 14 15 17 23 29 33 36 41 44 47 51 52 51 55 59 63 67 70 73 76 73 69 66 63 62 62 60 60 63 62 58
11 14 19 25 30 34 38 42 46 48 50 50 53 59 64 69 71 73 76 77 74 71 69 66 62 62 63 63 61 61 65 64
15 19 24 28 34 39 43 45 48 49 48 53 60 67 72 73 74 77 71 65 64 62 62 63 61 57 59 62 64 65 63 67
17 22 26 33 37 42 46 50 50 49 56 64 70 73 72 75 76 65 60 55 57 57 57 55 55 55 54 58 62 62 64 66
20 26 30 34 39 45 51 53 50 54 63 69 74 73 76 78 68 60 54 49 45 51 51 50 49 48 49 52 57 61 62 66
21 26 30 36 42 48 55 55 54 59 67 75 77 76 79 72 64 58 50 43 36 39 44 43 44 42 43 47 52 58 62 64
21 27 33 38 44 51 58 57 55 63 72 79 77 77 77 68 61 54 49 44 34 29 33 36 37 36 38 42 46 53 61 65
22 28 34 39 47 53 58 55 58 67 76 81 76 78 73 66 59 54 48 43 36 27 25 28 30 30 32 37 41 46 56 62
23 28 34 42 49 54 57 55 61 70 78 81 78 80 71 65 59 53 47 41 35 25 20 20 21 23 27 31 35 42 49 56
23 28 35 42 48 53 56 56 62 72 80 83 81 79 68 62 56 50 44 38 33 24 18 14 14 16 20 25 29 35 43 49
23 28 34 41 48 53 57 57 64 74 82 83 81 76 67 61 56 49 43 37 30 22 15 10 7 10 15 20 23 29 37 45
Wind_Direction
291 287 286 286 285 283 281 283 283 282 279 276 276 277 276 275 275 274 275 276 275 275 274 272 269 267 266 265 263 262 261 259
292 289 288 285 282 284 288 285 283 283 282 280 279 278 277 276 276 276 276 275 275 274 273 272 272 271 267 264 261 257 256 257
299 299 297 295 293 288 284 284 286 287 289 290 289 289 289 288 287 286 284 282 279 278 277 275 272 269 265 265 264 260 257 254
305 311 314 306 295 290 289 290 292 292 294 299 303 303 302 299 294 290 285 283 283 281 276 272 269 267 267 266 265 265 263 258
310 310 306 302 300 300 309 317 316 322 322 315 309 306 303 300 296 295 292 286 281 277 272 270 269 267 267 265 263 261 259 256
327 323 317 314 317 338 336 327 321 318 320 322 317 312 309 304 301 298 296 293 291 286 281 277 272 269 265 263 263 260 257 254
331 333 336 344 359 358 342 336 336 331 326 321 316 313 309 306 303 300 296 292 289 285 281 276 269 264 262 263 263 262 259 256
357 14 15 12 358 347 342 338 334 328 325 321 317 314 313 310 307 304 300 297 292 287 280 274 269 264 258 253 253 255 257 256
13 8 7 354 351 347 343 338 334 329 324 321 320 318 315 312 308 305 301 298 294 289 282 274 267 262 258 253 248 246 247 250
1 1 355 353 349 346 341 336 331 327 326 326 323 320 316 312 308 304 302 297 290 284 279 274 267 259 254 250 247 242 240 242
8 1 356 351 352 344 337 334 330 330 331 328 326 324 319 315 313 308 303 296 290 284 277 271 266 259 249 246 244 240 236 237
5 3 358 356 346 341 339 335 334 337 336 334 331 326 322 320 317 313 306 299 292 286 280 274 266 260 251 241 238 236 233 231
5 3 357 351 344 343 342 340 340 342 339 336 333 330 328 325 322 318 312 304 293 283 281 274 267 259 250 241 234 230 228 228
357 359 354 349 343 345 345 343 345 343 340 340 338 334 331 329 327 323 319 313 304 284 279 274 267 260 249 239 231 225 223 222
356 355 350 345 346 348 346 345 346 344 345 344 340 336 335 334 331 328 326 322 314 297 281 272 266 258 247 238 229 221 217 217
357 353 345 348 350 349 347 345 348 348 349 346 343 341 341 339 337 335 333 328 324 311 288 272 263 255 243 236 227 219 215 213
354 344 347 353 351 350 348 348 352 351 352 348 349 347 346 344 342 340 337 333 329 324 301 279 264 250 238 232 224 216 211 207
342 342 349 354 349 351 350 353 355 355 354 353 354 351 350 348 347 346 344 341 338 334 316 290 263 244 231 224 218 212 208 202
335 341 348 353 349 352 355 357 358 358 357 357 357 355 355 353 353 353 353 351 347 342 330 308 265 229 218 212 206 201 200 196
Height
10537 10529 10522 10520 10509 10506 10502 10498 10493 10489 10488 10483 10477 10472 10469 10464 10459 10454 10452 10450 10447 10446 10444 10442 10443 10443 10444 10445 10448 10451 10452 10452
10516 10511 10506 10502 10497 10492 10488 10486 10481 10475 10470 10467 10464 10460 10456 10452 10449 10446 10442 10438 10436 10434 10431 10428 10426 10425 10426 10426 10430 10434 10432 10431
10505 10499 10493 10488 10485 10482 10479 10474 10470 10466 10461 10456 10453 10449 10444 10440 10437 10432 10429 10426 10423 10421 10418 10415 10411 10409 10408 10408 10411 10413 10414 10416
10496 10490 10485 10481 10479 10475 10471 10467 10463 10460 10455 10450 10446 10441 10437 10432 10427 10424 10421 10418 10414 10411 10408 10405 10401 10399 10397 10396 10396 10398 10398 10399
10491 10485 10480 10477 10473 10469 10464 10460 10457 10453 10448 10444 10440 10435 10430 10424 10419 10414 10409 10405 10403 10400 10397 10394 10391 10390 10388 10386 10386 10387 10387 10387
10478 10474 10471 10469 10465 10461 10459 10457 10453 10448 10442 10438 10432 10426 10421 10415 10409 10403 10397 10391 10387 10383 10382 10380 10378 10375 10373 10372 10373 10374 10376 10377
10476 10471 10467 10465 10462 10460 10457 10452 10447 10442 10436 10431 10425 10419 10411 10404 10396 10389 10381 10374 10368 10363 10360 10358 10358 10360 10359 10358 10357 10358 10360 10364
10474 10471 10468 10465 10463 10459 10454 10449 10443 10436 10429 10421 10414 10405 10397 10388 10380 10371 10362 10354 10347 10341 10338 10336 10334 10335 10338 10341 10342 10343 10345 10348
10477 10474 10471 10467 10462 10456 10451 10444 10436 10429 10421 10411 10401 10392 10381 10371 10360 10349 10338 10328 10317 10311 10309 10308 10308 10310 10312 10317 10322 10326 10330 10333
10480 10475 10471 10465 10459 10453 10447 10440 10432 10422 10412 10400 10389 10378 10365 10351 10338 10325 10313 10299 10288 10280 10276 10275 10277 10281 10285 10291 10297 10304 10311 10316
10479 10475 10469 10464 10458 10451 10444 10436 10426 10414 10402 10390 10377 10361 10344 10328 10312 10295 10280 10268 10258 10250 10246 10245 10246 10251 10257 10264 10270 10278 10289 10296
10478 10473 10468 10462 10456 10448 10439 10428 10415 10403 10390 10375 10359 10342 10323 10305 10286 10269 10254 10243 10233 10225 10220 10218 10219 10223 10230 10237 10244 10253 10265 10275
10477 10472 10466 10461 10453 10443 10432 10419 10407 10394 10380 10364 10346 10324 10304 10283 10263 10247 10234 10222 10213 10203 10197 10195 10195 10198 10204 10211 10220 10231 10242 10253
10476 10471 10465 10457 10448 10438 10426 10413 10399 10386 10370 10351 10329 10307 10285 10263 10244 10227 10214 10203 10194 10185 10179 10175 10174 10177 10182 10189 10198 10209 10220 10232
10475 10469 10463 10455 10444 10433 10420 10406 10394 10379 10360 10338 10316 10294 10270 10247 10228 10212 10198 10186 10176 10169 10163 10159 10158 10160 10164 10170 10179 10190 10201 10213
10474 10468 10461 10452 10441 10430 10417 10403 10389 10371 10350 10328 10305 10280 10255 10234 10215 10198 10184 10173 10163 10156 10150 10146 10145 10146 10149 10154 10163 10174 10185 10198
10473 10467 10459 10450 10439 10428 10414 10400 10383 10364 10344 10320 10293 10268 10244 10223 10205 10188 10174 10162 10152 10145 10139 10136 10135 10136 10138 10143 10151 10161 10173 10186
10472 10466 10458 10449 10438 10427 10413 10396 10379 10359 10336 10311 10286 10262 10240 10218 10199 10182 10167 10155 10144 10137 10132 10129 10127 10128 10131 10135 10142 10152 10164 10178
10471 10465 10457 10448 10437 10426 10410 10393 10375 10354 10333 10308 10285 10261 10237 10215 10195 10177 10163 10151 10140 10133 10128 10125 10123 10124 10126 10130 10137 10146 10158 10172